SCP
1 0 0 0 0 0 -0 -0 0 -0 -0 0 -0 -0 -0 -0 0 0 0 0 0 -0
1 0 0 0 0 0 0 0 0 0 -0 -0 -0 -0 -0 0 -0 0 0 -0 0 0
1 1 1 1 1 0 0 0 0 0 -0 -0 -0 -0 -0 -0 -0 -0 -0 0 -0 0
2 1 1 1 0 1 1 1 0 0 0 -0 0 -0 -0 0 0 -0 -0 -0 -0 -0
2 2 1 1 1 0 1 1 1 0 0 0 0 0 -0 -0 -0 -0 -0 0 -0 -0
2 2 1 1 1 0 1 1 0 0 0 0 0 0 0 0 0 -0 -0 0 -0 -0
2 2 1 2 2 1 1 1 1 1 1 0 0 0 0 0 0 0 -0 0 -0 -0
2 2 2 2 2 2 1 1 1 1 1 0 0 0 0 0 0 0 -0 0 0 0
2 2 2 2 2 2 2 2 1 1 1 0 0 0 0 0 0 0 0 -0 0 0
3 2 2 2 3 2 2 2 2 2 1 0 0 0 0 -0 -0 0 0 0 -0 0
3 2 3 3 3 3 3 2 2 2 1 1 0 0 0 0 -0 -0 -0 0 0 0
3 3 3 3 3 3 3 2 2 2 2 1 0 0 0 0 -0 0 -0 0 0 0
3 3 2 3 4 5 4 3 2 2 2 1 1 1 0 0 0 -0 -0 0 0 0
2 2 2 3 5 5 4 3 3 2 2 2 1 0 0 -0 0 0 -0 0 0 0
Wind_Speed_500mb
78 55 50 47 40 38 33 30 28 31 28 24 20 17 20 13 15 16 19 18 21 11
83 75 57 52 52 41 39 31 32 30 28 30 27 26 25 17 18 18 18 18 19 20
90 82 73 63 54 51 41 44 25 33 32 31 33 31 33 24 24 24 21 16 26 16
90 80 82 75 71 59 54 48 50 37 32 33 34 35 38 35 26 24 23 27 23 23
90 85 76 90 73 61 60 58 56 47 44 36 37 38 38 36 33 34 31 30 31 30
89 91 86 84 88 74 65 64 58 55 51 46 42 44 43 40 37 37 34 34 36 34
91 93 95 87 82 81 75 70 64 60 58 54 48 45 44 43 42 41 38 39 38 38
93 92 90 88 85 82 80 76 68 66 63 59 53 47 52 52 48 44 43 43 42 41
88 90 91 93 92 88 84 79 74 73 68 64 55 52 55 53 51 50 47 46 47 48
86 90 93 93 91 90 87 82 80 77 72 70 68 59 60 59 59 51 51 52 52 49
87 89 89 92 93 92 90 87 84 81 77 74 73 67 66 65 63 63 62 61 59 59
94 88 87 95 97 94 91 88 88 85 81 80 78 73 69 67 67 68 69 66 67 70
90 90 90 97 97 97 94 91 82 83 85 83 81 78 75 71 68 61 63 67 70 73
86 87 85 81 86 95 96 73 86 71 75 79 80 80 79 77 76 71 57 57 57 55
Wind_Direction_500mb
212 207 201 206 206 207 210 214 217 241 212 209 218 211 230 207 195 219 205 216 208 223
217 212 210 208 209 208 213 212 213 219 222 214 216 214 224 206 219 226 207 221 226 221
220 219 208 208 212 210 211 212 211 219 217 218 217 219 215 211 216 229 211 219 236 234
218 219 216 211 214 209 214 214 224 214 223 220 219 219 220 204 214 227 219 211 223 241
214 215 216 214 212 219 216 222 222 226 228 230 221 220 220 219 220 220 219 226 228 235
208 213 215 216 218 219 224 227 227 228 228 231 231 223 226 222 222 223 228 227 229 231
210 212 217 216 220 221 222 228 227 227 230 231 233 228 223 227 224 224 227 229 229 233
212 211 212 215 218 223 223 228 227 227 229 232 230 229 231 224 230 237 230 227 235 238
209 210 209 216 220 221 221 224 227 228 230 232 228 230 233 241 232 231 236 239 238 236
208 209 209 215 219 221 221 221 225 230 231 233 236 230 233 238 240 236 245 249 249 248
208 210 209 213 218 220 222 222 224 229 232 235 239 239 238 239 241 246 244 248 255 259
208 209 208 212 218 220 222 225 228 232 234 236 239 242 241 241 242 245 250 252 255 257
206 209 209 216 216 221 224 227 228 232 236 238 241 242 243 244 242 242 249 256 258 259
208 210 211 211 213 220 224 218 229 226 233 239 242 243 245 244 243 242 245 248 250 261
Wind_Speed_850mb
78 55 50 47 40 38 33 30 28 31 28 24 20 17 20 13 15 16 19 18 21 11
83 75 57 52 52 41 39 31 32 30 28 30 27 26 25 17 18 18 18 18 19 20
90 82 73 63 54 51 41 44 25 33 32 31 33 31 33 24 24 24 21 16 26 16
90 80 82 75 71 59 54 48 50 37 32 33 34 35 38 35 26 24 23 27 23 23
90 85 76 90 73 61 60 58 56 47 44 36 37 38 38 36 33 34 31 30 31 30
89 91 86 84 88 74 65 64 58 55 51 46 42 44 43 40 37 37 34 34 36 34
91 93 95 87 82 81 75 70 64 60 58 54 48 45 44 43 42 41 38 39 38 38
93 92 90 88 85 82 80 76 68 66 63 59 53 47 52 52 48 44 43 43 42 41
88 90 91 93 92 88 84 79 74 73 68 64 55 52 55 53 51 50 47 46 47 48
86 90 93 93 91 90 87 82 80 77 72 70 68 59 60 59 59 51 51 52 52 49
87 89 89 92 93 92 90 87 84 81 77 74 73 67 66 65 63 63 62 61 59 59
94 88 87 95 97 94 91 88 88 85 81 80 78 73 69 67 67 68 69 66 67 70
90 90 90 97 97 97 94 91 82 83 85 83 81 78 75 71 68 61 63 67 70 73
86 87 85 81 86 95 96 73 86 71 75 79 80 80 79 77 76 71 57 57 57 55
Wind_Direction_850mb
212 207 201 206 206 207 210 214 217 241 212 209 218 211 230 207 195 219 205 216 208 223
217 212 210 208 209 208 213 212 213 219 222 214 216 214 224 206 219 226 207 221 226 221
220 219 208 208 212 210 211 212 211 219 217 218 217 219 215 211 216 229 211 219 236 234
218 219 216 211 214 209 214 214 224 214 223 220 219 219 220 204 214 227 219 211 223 241
214 215 216 214 212 219 216 222 222 226 228 230 221 220 220 219 220 220 219 226 228 235
208 213 215 216 218 219 224 227 227 228 228 231 231 223 226 222 222 223 228 227 229 231
210 212 217 216 220 221 222 228 227 227 230 231 233 228 223 227 224 224 227 229 229 233
212 211 212 215 218 223 223 228 227 227 229 232 230 229 231 224 230 237 230 227 235 238
209 210 209 216 220 221 221 224 227 228 230 232 228 230 233 241 232 231 236 239 238 236
208 209 209 215 219 221 221 221 225 230 231 233 236 230 233 238 240 236 245 249 249 248
208 210 209 213 218 220 222 222 224 229 232 235 239 239 238 239 241 246 244 248 255 259
208 209 208 212 218 220 222 225 228 232 234 236 239 242 241 241 242 245 250 252 255 257
206 209 209 216 216 221 224 227 228 232 236 238 241 242 243 244 242 242 249 256 258 259
208 210 211 211 213 220 224 218 229 226 233 239 242 243 245 244 243 242 245 248 250 261